| time (UTC) | temp F | wind direction | speed MPH | gust MPH | rain 1hr in | rain 24hr in | rain mn in | humidity % | barometer mb |
| 20260903045705 | 58 | 215 | 4.0 | 14.0 | 0.00 | 0.32 | 0.02 | 97 | 1005.2 |
| 20260903045206 | 58 | 245 | 4.0 | 14.0 | 0.00 | 0.32 | 0.02 | 97 | 1005.3 |
| 20260903044705 | 58 | 207 | 4.0 | 14.0 | 0.00 | 0.32 | 0.02 | 97 | 1005.2 |
| 20260903044205 | 58 | 234 | 4.0 | 12.0 | 0.00 | 0.32 | 0.02 | 97 | 1005.2 |
| 20260903042705 | 58 | 216 | 3.0 | 10.0 | 0.00 | 0.32 | 0.02 | 97 | 1005.4 |
| 20260903042226 | 58 | 183 | 3.0 | 10.0 | 0.00 | 0.32 | 0.02 | 97 | 1005.4 |
| 20260903041705 | 58 | 216 | 3.0 | 9.0 | 0.00 | 0.32 | 0.02 | 97 | 1005.4 |
| 20260903040704 | 58 | 233 | 4.0 | 13.0 | 0.00 | 0.32 | 0.02 | 97 | 1005.4 |
| 20260903040205 | 58 | 239 | 4.0 | 16.0 | 0.00 | 0.32 | 0.02 | 97 | 1005.4 |
| 20260903035705 | 58 | 217 | 4.0 | 16.0 | 0.00 | 0.32 | 0.02 | 97 | 1005.3 |
| 20260903035205 | 58 | 241 | 6.0 | 16.0 | 0.00 | 0.32 | 0.02 | 97 | 1005.2 |
| 20260903034705 | 58 | 248 | 4.0 | 14.0 | 0.00 | 0.32 | 0.02 | 97 | 1005.2 |
| 20260903034207 | 58 | 258 | 2.0 | 10.0 | 0.00 | 0.32 | 0.02 | 97 | 1005.2 |
| 20260903033704 | 58 | 211 | 2.0 | 12.0 | 0.00 | 0.32 | 0.02 | 97 | 1005.2 |
| 20260903032704 | 58 | 244 | 4.0 | 15.0 | 0.00 | 0.32 | 0.02 | 97 | 1005.2 |
| 20260903031705 | 58 | 300 | 4.0 | 10.0 | 0.00 | 0.32 | 0.02 | 97 | 1005.1 |
| 20260903031207 | 58 | 214 | 3.0 | 10.0 | 0.00 | 0.32 | 0.02 | 97 | 1005.1 |
| 20260903030705 | 58 | 239 | 3.0 | 10.0 | 0.00 | 0.32 | 0.02 | 97 | 1005.1 |
| 20260903025708 | 58 | 246 | 5.0 | 16.0 | 0.00 | 0.32 | 0.02 | 97 | 1004.9 |
| 20260903025208 | 58 | 322 | 5.0 | 16.0 | 0.00 | 0.32 | 0.02 | 97 | 1005.0 |
| 20260903024705 | 58 | 191 | 5.0 | 13.0 | 0.00 | 0.32 | 0.02 | 97 | 1004.9 |
| 20260903024205 | 58 | 257 | 5.0 | 14.0 | 0.00 | 0.32 | 0.02 | 97 | 1004.9 |
| 20260903023705 | 59 | 258 | 4.0 | 14.0 | 0.00 | 0.32 | 0.02 | 97 | 1004.9 |
| 20260903022705 | 59 | 236 | 3.0 | 12.0 | 0.00 | 0.32 | 0.02 | 97 | 1004.9 |
| 20260903021719 | 59 | 237 | 4.0 | 16.0 | 0.00 | 0.32 | 0.02 | 97 | 1004.9 |
| 20260903021205 | 59 | 240 | 5.0 | 16.0 | 0.00 | 0.32 | 0.02 | 97 | 1005.0 |
| 20260903020205 | 59 | 261 | 7.0 | 16.0 | 0.00 | 0.32 | 0.02 | 97 | 1004.9 |
| 20260903015722 | 59 | 225 | 7.0 | 16.0 | 0.00 | 0.32 | 0.02 | 97 | 1004.9 |
| 20260903015205 | 59 | 234 | 7.0 | 18.0 | 0.00 | 0.32 | 0.02 | 97 | 1004.9 |
| 20260903014705 | 59 | 222 | 7.0 | 18.0 | 0.00 | 0.32 | 0.02 | 97 | 1004.8 |
| 20260903014205 | 59 | 261 | 7.0 | 18.0 | 0.00 | 0.32 | 0.02 | 97 | 1004.8 |
| 20260903013708 | 59 | 234 | 6.0 | 14.0 | 0.00 | 0.32 | 0.02 | 97 | 1004.5 |
| 20260903013205 | 60 | 242 | 5.0 | 16.0 | 0.00 | 0.32 | 0.02 | 97 | 1004.7 |
| 20260903012706 | 60 | 271 | 5.0 | 16.0 | 0.00 | 0.32 | 0.02 | 97 | 1004.7 |
| 20260903012205 | 60 | 248 | 5.0 | 16.0 | 0.00 | 0.32 | 0.02 | 97 | 1004.8 |
| 20260903011705 | 60 | 241 | 5.0 | 15.0 | 0.01 | 0.32 | 0.02 | 97 | 1004.8 |
| 20260903011205 | 60 | 284 | 6.0 | 20.0 | 0.01 | 0.32 | 0.02 | 97 | 1004.8 |
| 20260903010733 | 60 | 269 | 6.0 | 20.0 | 0.01 | 0.32 | 0.02 | 97 | 1004.7 |
| 20260903005705 | 60 | 250 | 7.0 | 25.0 | 0.01 | 0.32 | 0.02 | 97 | 1004.6 |
| 20260903005205 | 61 | 304 | 8.0 | 25.0 | 0.01 | 0.32 | 0.02 | 97 | 1004.6 |
| 20260903004705 | 61 | 224 | 7.0 | 25.0 | 0.01 | 0.32 | 0.02 | 97 | 1004.6 |
| 20260903004205 | 61 | 235 | 4.0 | 15.0 | 0.01 | 0.32 | 0.02 | 97 | 1004.6 |
| 20260903003705 | 61 | 273 | 6.0 | 14.0 | 0.01 | 0.32 | 0.02 | 97 | 1004.6 |
| 20260903003205 | 61 | 207 | 6.0 | 14.0 | 0.02 | 0.32 | 0.02 | 97 | 1004.6 |
| 20260903002705 | 61 | 247 | 6.0 | 14.0 | 0.02 | 0.32 | 0.02 | 97 | 1004.5 |
| 20260903002205 | 61 | 208 | 5.0 | 14.0 | 0.01 | 0.31 | 0.01 | 97 | 1004.5 |
| 20260903001705 | 60 | 227 | 5.0 | 16.0 | 0.01 | 0.31 | 0.01 | 97 | 1004.6 |
| 20260903001205 | 61 | 254 | 5.0 | 16.0 | 0.01 | 0.31 | 0.01 | 97 | 1004.6 |
| 20260903000705 | 60 | 269 | 6.0 | 16.0 | 0.01 | 0.31 | 0.01 | 97 | 1004.5 |
| 20260903000205 | 60 | 225 | 6.0 | 14.0 | 0.01 | 0.31 | 0.01 | 97 | 1004.6 |
| 20260902235705 | 60 | 234 | 5.0 | 12.0 | 0.02 | 0.31 | 0.01 | 97 | 1004.7 |
| 20260902235205 | 60 | 244 | 6.0 | 12.0 | 0.02 | 0.31 | 0.01 | 97 | 1004.7 |
| 20260902234723 | 60 | 254 | 5.0 | 12.0 | 0.02 | 0.31 | 0.01 | 97 | 1004.7 |
| 20260902234205 | 60 | 246 | 4.0 | 7.0 | 0.02 | 0.31 | 0.01 | 97 | 1004.7 |
| 20260902233705 | 60 | 187 | 3.0 | 7.0 | 0.01 | 0.31 | 0.00 | 97 | 1004.8 |
| 20260902232705 | 59 | 198 | 3.0 | 7.0 | 0.01 | 0.31 | 0.00 | 97 | 1004.9 |
| 20260902232205 | 59 | 220 | 3.0 | 6.0 | 0.01 | 0.31 | 0.00 | 97 | 1004.8 |
| 20260902231705 | 59 | 201 | 2.0 | 6.0 | 0.02 | 0.31 | 0.00 | 97 | 1004.8 |
| 20260902231205 | 59 | 191 | 1.0 | 3.0 | 0.02 | 0.31 | 0.00 | 97 | 1005.0 |
| 20260902230704 | 58 | 227 | 1.0 | 3.0 | 0.02 | 0.31 | 0.00 | 97 | 1005.0 |
| 20260902230205 | 58 | 212 | 0.0 | 1.0 | 0.02 | 0.31 | 0.31 | 97 | 1005.0 |
| 20260902225704 | 58 | 309 | 0.0 | 1.0 | 0.05 | 0.30 | 0.30 | 97 | 1005.2 |
| 20260902225221 | 59 | 309 | 0.0 | 3.0 | 0.06 | 0.30 | 0.30 | 97 | 1005.3 |
| 20260902224705 | 59 | 309 | 0.0 | 4.0 | 0.07 | 0.30 | 0.30 | 97 | 1005.3 |
| 20260902223705 | 59 | 271 | 1.0 | 5.0 | 0.09 | 0.30 | 0.30 | 97 | 1005.2 |
| 20260902223205 | 59 | 112 | 1.0 | 5.0 | 0.09 | 0.30 | 0.30 | 97 | 1005.1 |
| 20260902222705 | 58 | 184 | 1.0 | 3.0 | 0.09 | 0.30 | 0.30 | 97 | 1005.2 |
| 20260902222206 | 58 | 140 | 1.0 | 3.0 | 0.09 | 0.29 | 0.29 | 97 | 1005.2 |
| 20260902221707 | 58 | 99 | 1.0 | 3.0 | 0.09 | 0.29 | 0.29 | 97 | 1005.2 |
| 20260902220705 | 58 | 88 | 1.0 | 4.0 | 0.08 | 0.28 | 0.28 | 97 | 1005.4 |
| 20260902215705 | 58 | 110 | 2.0 | 4.0 | 0.04 | 0.24 | 0.24 | 97 | 1005.6 |
| 20260902215205 | 58 | 109 | 1.0 | 4.0 | 0.02 | 0.23 | 0.23 | 97 | 1005.6 |
| 20260902214705 | 58 | 89 | 1.0 | 4.0 | 0.02 | 0.23 | 0.23 | 97 | 1005.7 |
| 20260902214205 | 58 | 111 | 1.0 | 4.0 | 0.02 | 0.22 | 0.22 | 97 | 1005.8 |
| 20260902213705 | 58 | 128 | 1.0 | 4.0 | 0.01 | 0.21 | 0.21 | 97 | 1005.8 |
| 20260902213205 | 58 | 103 | 1.0 | 3.0 | 0.01 | 0.21 | 0.21 | 97 | 1006.0 |
| 20260902212705 | 58 | 86 | 1.0 | 3.0 | 0.00 | 0.20 | 0.20 | 97 | 1006.0 |
| 20260902212205 | 58 | 111 | 0.0 | 2.0 | 0.00 | 0.20 | 0.20 | 97 | 1006.0 |
| 20260902211705 | 58 | 192 | 0.0 | 7.0 | 0.00 | 0.20 | 0.20 | 97 | 1006.0 |
| 20260902211205 | 58 | 192 | 1.0 | 7.0 | 0.00 | 0.20 | 0.20 | 97 | 1006.1 |
| 20260902210705 | 58 | 119 | 3.0 | 7.0 | 0.00 | 0.20 | 0.20 | 97 | 1006.0 |
| 20260902210205 | 58 | 82 | 3.0 | 6.0 | 0.00 | 0.20 | 0.20 | 97 | 1006.0 |
| 20260902205704 | 58 | 88 | 2.0 | 8.0 | 0.00 | 0.20 | 0.20 | 97 | 1006.1 |
| 20260902205206 | 58 | 86 | 2.0 | 8.0 | 0.00 | 0.20 | 0.20 | 97 | 1006.2 |
| 20260902204709 | 58 | 88 | 2.0 | 8.0 | 0.00 | 0.20 | 0.20 | 97 | 1006.3 |
| 20260902204205 | 58 | 87 | 2.0 | 7.0 | 0.00 | 0.20 | 0.20 | 97 | 1006.5 |
| 20260902203705 | 58 | 86 | 3.0 | 7.0 | 0.00 | 0.20 | 0.20 | 97 | 1006.5 |
| 20260902203205 | 58 | 90 | 3.0 | 6.0 | 0.01 | 0.20 | 0.20 | 97 | 1006.4 |
| 20260902202705 | 58 | 72 | 3.0 | 6.0 | 0.01 | 0.20 | 0.20 | 97 | 1006.6 |
| 20260902202206 | 58 | 69 | 2.0 | 6.0 | 0.01 | 0.20 | 0.20 | 97 | 1006.6 |
| 20260902201705 | 58 | 99 | 3.0 | 7.0 | 0.01 | 0.20 | 0.20 | 97 | 1006.6 |
| 20260902195705 | 58 | 101 | 2.0 | 4.0 | 0.01 | 0.20 | 0.20 | 97 | 1006.6 |
| 20260902195205 | 58 | 79 | 2.0 | 4.0 | 0.01 | 0.20 | 0.20 | 97 | 1006.8 |
| 20260902194706 | 58 | 82 | 1.0 | 4.0 | 0.01 | 0.20 | 0.20 | 97 | 1006.9 |
| 20260902194205 | 58 | 87 | 1.0 | 3.0 | 0.01 | 0.20 | 0.20 | 97 | 1007.0 |
| 20260902193705 | 58 | 87 | 1.0 | 3.0 | 0.01 | 0.20 | 0.20 | 97 | 1007.2 |
| 20260902193205 | 58 | 87 | 1.0 | 3.0 | 0.00 | 0.20 | 0.20 | 97 | 1007.2 |
| 20260902192705 | 58 | 87 | 1.0 | 3.0 | 0.00 | 0.20 | 0.20 | 97 | 1007.3 |
| 20260902192205 | 58 | 87 | 1.0 | 3.0 | 0.00 | 0.20 | 0.20 | 97 | 1007.4 |
| 20260902191705 | 58 | 87 | 1.0 | 4.0 | 0.00 | 0.20 | 0.20 | 96 | 1007.4 |
| 20260902191205 | 58 | 78 | 2.0 | 4.0 | 0.00 | 0.20 | 0.20 | 96 | 1007.5 |
| 20260902190704 | 58 | 72 | 2.0 | 4.0 | 0.00 | 0.20 | 0.20 | 96 | 1007.5 |
| 20260902190205 | 58 | 70 | 1.0 | 5.0 | 0.00 | 0.20 | 0.20 | 96 | 1007.5 |
| 20260902185705 | 58 | 67 | 2.0 | 5.0 | 0.00 | 0.20 | 0.20 | 96 | 1007.6 |
| 20260902185208 | 58 | 56 | 2.0 | 5.0 | 0.00 | 0.20 | 0.20 | 96 | 1007.5 |
| 20260902184205 | 58 | 64 | 2.0 | 5.0 | 0.00 | 0.20 | 0.20 | 96 | 1007.5 |
| 20260902183705 | 58 | 72 | 2.0 | 5.0 | 0.00 | 0.20 | 0.20 | 96 | 1007.6 |
| 20260902183205 | 58 | 73 | 2.0 | 6.0 | 0.01 | 0.20 | 0.20 | 96 | 1007.8 |
| 20260902182705 | 58 | 80 | 2.0 | 8.0 | 0.01 | 0.20 | 0.20 | 96 | 1007.9 |
| 20260902182205 | 58 | 67 | 3.0 | 8.0 | 0.01 | 0.20 | 0.20 | 96 | 1007.9 |
| 20260902181705 | 58 | 92 | 4.0 | 8.0 | 0.02 | 0.20 | 0.20 | 96 | 1007.9 |
| 20260902181205 | 58 | 82 | 4.0 | 7.0 | 0.02 | 0.20 | 0.20 | 96 | 1008.0 |
| 20260902180706 | 58 | 77 | 3.0 | 7.0 | 0.02 | 0.20 | 0.20 | 96 | 1008.2 |
| 20260902180205 | 58 | 91 | 3.0 | 7.0 | 0.02 | 0.20 | 0.20 | 96 | 1008.3 |
| 20260902175705 | 58 | 61 | 3.0 | 7.0 | 0.02 | 0.20 | 0.20 | 96 | 1008.4 |
| 20260902174705 | 58 | 71 | 3.0 | 7.0 | 0.03 | 0.20 | 0.20 | 96 | 1008.5 |
| 20260902174205 | 58 | 69 | 3.0 | 7.0 | 0.03 | 0.20 | 0.20 | 96 | 1008.6 |
| 20260902173705 | 58 | 54 | 3.0 | 7.0 | 0.03 | 0.20 | 0.20 | 96 | 1008.5 |
| 20260902173205 | 57 | 71 | 3.0 | 9.0 | 0.02 | 0.19 | 0.19 | 96 | 1008.5 |
| 20260902172705 | 57 | 86 | 4.0 | 9.0 | 0.02 | 0.19 | 0.19 | 96 | 1008.7 |
| 20260902172205 | 57 | 81 | 4.0 | 9.0 | 0.02 | 0.18 | 0.18 | 96 | 1008.8 |
| 20260902171705 | 57 | 102 | 4.0 | 9.0 | 0.02 | 0.18 | 0.18 | 96 | 1008.9 |
| 20260902170716 | 57 | 67 | 5.0 | 9.0 | 0.02 | 0.17 | 0.17 | 96 | 1009.0 |
| 20260902170232 | 57 | 51 | 5.0 | 9.0 | 0.02 | 0.17 | 0.17 | 96 | 1009.0 |
| 20260902165705 | 57 | 71 | 5.0 | 12.0 | 0.03 | 0.17 | 0.17 | 96 | 1009.1 |
| 20260902165205 | 57 | 65 | 5.0 | 12.0 | 0.04 | 0.17 | 0.17 | 96 | 1009.1 |
| 20260902164206 | 57 | 55 | 7.0 | 11.0 | 0.05 | 0.17 | 0.17 | 96 | 1009.2 |
| 20260902163704 | 57 | 63 | 6.0 | 11.0 | 0.05 | 0.17 | 0.17 | 96 | 1009.3 |
| 20260902162706 | 57 | 38 | 6.0 | 11.0 | 0.06 | 0.17 | 0.17 | 96 | 1009.4 |
| 20260902162206 | 56 | 76 | 6.0 | 10.0 | 0.05 | 0.16 | 0.16 | 96 | 1009.4 |
| 20260902161704 | 57 | 67 | 6.0 | 10.0 | 0.05 | 0.16 | 0.16 | 96 | 1009.4 |
| 20260902161205 | 57 | 36 | 6.0 | 10.0 | 0.06 | 0.16 | 0.16 | 96 | 1009.5 |
| 20260902160205 | 56 | 83 | 4.0 | 11.0 | 0.04 | 0.14 | 0.14 | 96 | 1009.7 |
| 20260902155705 | 56 | 82 | 5.0 | 11.0 | 0.04 | 0.14 | 0.14 | 96 | 1009.8 |
| 20260902153705 | 56 | 51 | 5.0 | 10.0 | 0.02 | 0.12 | 0.12 | 96 | 1010.1 |
| 20260902152704 | 56 | 69 | 5.0 | 10.0 | 0.02 | 0.11 | 0.11 | 96 | 1010.3 |
| 20260902152206 | 56 | 50 | 5.0 | 9.0 | 0.02 | 0.11 | 0.11 | 95 | 1010.2 |
| 20260902151705 | 56 | 59 | 6.0 | 10.0 | 0.02 | 0.11 | 0.11 | 95 | 1010.3 |
| 20260902151205 | 56 | 56 | 5.0 | 10.0 | 0.01 | 0.10 | 0.10 | 95 | 1010.4 |
| 20260902150705 | 56 | 65 | 5.0 | 10.0 | 0.01 | 0.11 | 0.10 | 95 | 1010.5 |
| 20260902145705 | 56 | 44 | 5.0 | 13.0 | 0.02 | 0.11 | 0.10 | 95 | 1010.6 |
| 20260902145206 | 56 | 62 | 5.0 | 13.0 | 0.01 | 0.10 | 0.09 | 95 | 1010.6 |
| 20260902144706 | 56 | 65 | 6.0 | 13.0 | 0.01 | 0.10 | 0.09 | 95 | 1010.6 |
| 20260902143705 | 56 | 38 | 6.0 | 11.0 | 0.01 | 0.10 | 0.09 | 95 | 1010.6 |
| 20260902143205 | 56 | 94 | 6.0 | 11.0 | 0.01 | 0.11 | 0.09 | 95 | 1010.7 |
| 20260902142705 | 56 | 80 | 6.0 | 10.0 | 0.01 | 0.11 | 0.09 | 95 | 1010.8 |
| 20260902142206 | 56 | 57 | 6.0 | 10.0 | 0.01 | 0.11 | 0.09 | 95 | 1010.8 |
| 20260902140705 | 55 | 59 | 5.0 | 11.0 | 0.00 | 0.10 | 0.09 | 95 | 1011.0 |
| 20260902140205 | 55 | 57 | 6.0 | 10.0 | 0.00 | 0.11 | 0.09 | 95 | 1011.1 |
| 20260902135704 | 55 | 84 | 6.0 | 10.0 | 0.00 | 0.11 | 0.09 | 95 | 1011.1 |
| 20260902134705 | 55 | 37 | 6.0 | 12.0 | 0.00 | 0.12 | 0.09 | 95 | 1011.1 |
| 20260902134206 | 55 | 71 | 6.0 | 12.0 | 0.00 | 0.12 | 0.09 | 95 | 1011.2 |
| 20260902133704 | 55 | 61 | 6.0 | 12.0 | 0.00 | 0.13 | 0.09 | 95 | 1011.1 |
| 20260902133205 | 55 | 74 | 7.0 | 12.0 | 0.00 | 0.13 | 0.09 | 95 | 1011.2 |
| 20260902132205 | 55 | 57 | 7.0 | 12.0 | 0.00 | 0.13 | 0.09 | 95 | 1011.3 |
| 20260902131730 | 55 | 50 | 7.0 | 12.0 | 0.00 | 0.13 | 0.09 | 95 | 1011.4 |
| 20260902131205 | 54 | 76 | 8.0 | 12.0 | 0.00 | 0.13 | 0.09 | 95 | 1011.4 |
| 20260902130705 | 55 | 65 | 6.0 | 11.0 | 0.00 | 0.15 | 0.09 | 95 | 1011.4 |
| 20260902130205 | 55 | 59 | 6.0 | 10.0 | 0.00 | 0.16 | 0.09 | 95 | 1011.5 |
| 20260902125704 | 54 | 55 | 6.0 | 10.0 | 0.00 | 0.18 | 0.09 | 95 | 1011.6 |
| 20260902125205 | 54 | 57 | 5.0 | 11.0 | 0.00 | 0.19 | 0.09 | 95 | 1011.6 |
| 20260902124705 | 54 | 67 | 6.0 | 11.0 | 0.00 | 0.21 | 0.09 | 95 | 1011.6 |
| 20260902124205 | 54 | 61 | 7.0 | 12.0 | 0.00 | 0.21 | 0.09 | 95 | 1011.7 |
| 20260902123705 | 54 | 74 | 7.0 | 12.0 | 0.00 | 0.21 | 0.09 | 95 | 1011.7 |
| 20260902123207 | 54 | 59 | 8.0 | 12.0 | 0.00 | 0.21 | 0.09 | 95 | 1011.8 |
| 20260902122705 | 54 | 60 | 7.0 | 11.0 | 0.00 | 0.21 | 0.09 | 95 | 1011.8 |
| 20260902122206 | 54 | 28 | 7.0 | 11.0 | 0.00 | 0.21 | 0.09 | 95 | 1011.9 |
| 20260902121705 | 54 | 46 | 6.0 | 11.0 | 0.00 | 0.21 | 0.09 | 95 | 1011.9 |
| 20260902121206 | 54 | 56 | 6.0 | 11.0 | 0.00 | 0.21 | 0.09 | 95 | 1012.0 |
| 20260902120705 | 54 | 53 | 6.0 | 11.0 | 0.00 | 0.21 | 0.09 | 95 | 1012.1 |
| 20260902115705 | 53 | 53 | 6.0 | 12.0 | 0.00 | 0.21 | 0.09 | 95 | 1012.2 |
| 20260902115206 | 53 | 62 | 7.0 | 12.0 | 0.00 | 0.21 | 0.09 | 95 | 1012.2 |
| 20260902114705 | 53 | 70 | 7.0 | 13.0 | 0.00 | 0.21 | 0.09 | 95 | 1012.2 |
| 20260902114205 | 53 | 48 | 6.0 | 13.0 | 0.00 | 0.21 | 0.09 | 95 | 1012.3 |
| 20260902113705 | 53 | 57 | 6.0 | 13.0 | 0.00 | 0.21 | 0.09 | 95 | 1012.4 |
| 20260902113205 | 53 | 92 | 5.0 | 11.0 | 0.00 | 0.21 | 0.09 | 95 | 1012.5 |
| 20260902112706 | 53 | 79 | 4.0 | 10.0 | 0.00 | 0.21 | 0.09 | 95 | 1012.5 |
| 20260902112205 | 53 | 78 | 5.0 | 10.0 | 0.00 | 0.21 | 0.09 | 95 | 1012.5 |
| 20260902111705 | 53 | 47 | 5.0 | 10.0 | 0.00 | 0.21 | 0.09 | 95 | 1012.5 |
| 20260902111205 | 53 | 74 | 5.0 | 10.0 | 0.00 | 0.21 | 0.09 | 95 | 1012.5 |
| 20260902110704 | 52 | 70 | 5.0 | 10.0 | 0.01 | 0.21 | 0.09 | 95 | 1012.6 |
| 20260902110231 | 52 | 55 | 5.0 | 10.0 | 0.01 | 0.21 | 0.09 | 95 | 1012.6 |
| 20260902105205 | 52 | 70 | 4.0 | 8.0 | 0.01 | 0.21 | 0.09 | 95 | 1012.8 |
| 20260902104711 | 52 | 19 | 3.0 | 8.0 | 0.01 | 0.21 | 0.09 | 95 | 1012.8 |
| 20260902104205 | 52 | 47 | 3.0 | 7.0 | 0.01 | 0.21 | 0.09 | 95 | 1012.7 |
| 20260902103705 | 52 | 57 | 4.0 | 7.0 | 0.01 | 0.21 | 0.09 | 95 | 1012.7 |
| 20260902103206 | 52 | 37 | 4.0 | 7.0 | 0.01 | 0.21 | 0.09 | 95 | 1012.7 |
| 20260902102705 | 52 | 50 | 4.0 | 8.0 | 0.01 | 0.21 | 0.09 | 95 | 1012.8 |
| 20260902102205 | 52 | 45 | 3.0 | 8.0 | 0.01 | 0.21 | 0.09 | 95 | 1012.8 |
| 20260902101705 | 51 | 44 | 4.0 | 8.0 | 0.01 | 0.21 | 0.09 | 95 | 1012.6 |
| 20260902101205 | 51 | 49 | 4.0 | 6.0 | 0.01 | 0.21 | 0.09 | 95 | 1012.6 |
| 20260902100704 | 51 | 40 | 4.0 | 8.0 | 0.01 | 0.20 | 0.08 | 95 | 1012.7 |
| 20260902100205 | 51 | 37 | 4.0 | 9.0 | 0.02 | 0.20 | 0.08 | 95 | 1012.7 |
| 20260902095705 | 51 | 19 | 5.0 | 9.0 | 0.02 | 0.20 | 0.08 | 95 | 1012.8 |
| 20260902095206 | 51 | 67 | 4.0 | 9.0 | 0.02 | 0.20 | 0.08 | 95 | 1012.8 |
| 20260902094705 | 51 | 50 | 4.0 | 8.0 | 0.02 | 0.20 | 0.08 | 95 | 1012.9 |
| 20260902094205 | 51 | 59 | 4.0 | 8.0 | 0.03 | 0.20 | 0.08 | 95 | 1013.0 |
| 20260902093734 | 51 | 57 | 4.0 | 8.0 | 0.03 | 0.20 | 0.08 | 95 | 1012.9 |
| 20260902093205 | 51 | 78 | 4.0 | 8.0 | 0.04 | 0.20 | 0.08 | 95 | 1012.9 |
| 20260902092705 | 51 | 52 | 3.0 | 7.0 | 0.04 | 0.20 | 0.08 | 95 | 1013.0 |
| 20260902092205 | 51 | 57 | 3.0 | 7.0 | 0.05 | 0.20 | 0.08 | 95 | 1013.0 |
| 20260902091705 | 51 | 61 | 3.0 | 6.0 | 0.05 | 0.20 | 0.08 | 95 | 1012.9 |
| 20260902091205 | 51 | 61 | 3.0 | 6.0 | 0.06 | 0.20 | 0.08 | 95 | 1013.0 |
| 20260902090705 | 51 | 46 | 3.0 | 6.0 | 0.05 | 0.20 | 0.07 | 95 | 1013.0 |
| 20260902085705 | 51 | 71 | 2.0 | 7.0 | 0.04 | 0.20 | 0.06 | 95 | 1013.0 |
| 20260902085207 | 51 | 67 | 3.0 | 8.0 | 0.03 | 0.19 | 0.06 | 95 | 1012.9 |
| 20260902084705 | 51 | 78 | 4.0 | 8.0 | 0.03 | 0.18 | 0.05 | 95 | 1012.9 |
| 20260902084205 | 51 | 68 | 3.0 | 8.0 | 0.03 | 0.18 | 0.05 | 95 | 1012.9 |
| 20260902083224 | 51 | 60 | 4.0 | 8.0 | 0.02 | 0.17 | 0.04 | 95 | 1013.0 |
| 20260902082706 | 51 | 76 | 4.0 | 8.0 | 0.02 | 0.17 | 0.04 | 95 | 1013.0 |
| 20260902081705 | 52 | 78 | 2.0 | 5.0 | 0.02 | 0.17 | 0.03 | 96 | 1013.0 |
| 20260902081205 | 52 | 61 | 3.0 | 5.0 | 0.02 | 0.16 | 0.02 | 96 | 1013.0 |
| 20260902080705 | 52 | 42 | 2.0 | 4.0 | 0.02 | 0.16 | 0.02 | 96 | 1013.0 |
| 20260902080205 | 52 | 37 | 2.0 | 4.0 | 0.02 | 0.16 | 0.02 | 96 | 1013.0 |
| 20260902075705 | 53 | 65 | 2.0 | 4.0 | 0.02 | 0.16 | 0.02 | 96 | 1013.0 |
| 20260902075205 | 53 | 28 | 2.0 | 4.0 | 0.02 | 0.16 | 0.02 | 96 | 1012.9 |
| 20260902074705 | 53 | 60 | 2.0 | 4.0 | 0.02 | 0.15 | 0.02 | 96 | 1012.9 |
| 20260902074205 | 53 | 65 | 2.0 | 4.0 | 0.02 | 0.15 | 0.02 | 96 | 1012.9 |
| 20260902073705 | 53 | 41 | 2.0 | 3.0 | 0.02 | 0.15 | 0.02 | 96 | 1012.9 |
| 20260902073205 | 53 | 27 | 1.0 | 3.0 | 0.02 | 0.15 | 0.02 | 96 | 1012.9 |
| 20260902072206 | 53 | 71 | 1.0 | 3.0 | 0.01 | 0.14 | 0.01 | 96 | 1012.8 |
| 20260902071705 | 52 | 39 | 1.0 | 3.0 | 0.01 | 0.14 | 0.01 | 96 | 1012.8 |
| 20260902071205 | 52 | 77 | 1.0 | 2.0 | 0.01 | 0.14 | 0.01 | 96 | 1012.8 |
| 20260902070705 | 52 | 22 | 0.0 | 2.0 | 0.01 | 0.14 | 0.01 | 96 | 1012.8 |
| 20260902070205 | 52 | 22 | 0.0 | 2.0 | 0.00 | 0.13 | 0.00 | 96 | 1012.8 |
| 20260902065707 | 52 | 22 | 1.0 | 2.0 | 0.00 | 0.13 | 0.00 | 96 | 1012.8 |
| 20260902064205 | 52 | 22 | 1.0 | 2.0 | 0.00 | 0.13 | 0.00 | 96 | 1012.8 |
| 20260902063705 | 52 | 22 | 1.0 | 2.0 | 0.00 | 0.13 | 0.00 | 96 | 1012.8 |
| 20260902063204 | 53 | 22 | 0.0 | 3.0 | 0.00 | 0.13 | 0.00 | 96 | 1012.7 |
| 20260902062706 | 53 | 22 | 1.0 | 3.0 | 0.00 | 0.13 | 0.00 | 96 | 1012.7 |
| 20260902062206 | 52 | 22 | 1.0 | 3.0 | 0.00 | 0.13 | 0.00 | 96 | 1012.8 |
| 20260902061706 | 52 | 22 | 0.0 | 1.0 | 0.00 | 0.13 | 0.00 | 96 | 1012.7 |
| 20260902061205 | 52 | 340 | 0.0 | 0.0 | 0.00 | 0.13 | 0.00 | 96 | 1012.8 |
| 20260902060706 | 52 | 340 | 0.0 | 0.0 | 0.00 | 0.13 | 0.00 | 96 | 1012.8 |
| 20260902060205 | 52 | 340 | 0.0 | 0.0 | 0.00 | 0.13 | 0.00 | 96 | 1012.7 |
| 20260902055705 | 52 | 340 | 0.0 | 0.0 | 0.00 | 0.13 | 0.00 | 96 | 1012.7 |
| 20260902054706 | 52 | 340 | 0.0 | 1.0 | 0.00 | 0.13 | 0.00 | 96 | 1012.7 |
| 20260902054208 | 52 | 340 | 0.0 | 1.0 | 0.00 | 0.13 | 0.00 | 96 | 1012.7 |
| 20260902052705 | 52 | 340 | 0.0 | 1.0 | 0.00 | 0.13 | 0.00 | 96 | 1012.7 |
| 20260902052205 | 52 | 340 | 0.0 | 0.0 | 0.00 | 0.13 | 0.00 | 96 | 1012.7 |
| 20260902051706 | 52 | 340 | 0.0 | 0.0 | 0.00 | 0.13 | 0.00 | 96 | 1012.7 |
| 20260902051207 | 52 | 340 | 0.0 | 0.0 | 0.00 | 0.13 | 0.00 | 96 | 1012.8 |
| 20260902050704 | 52 | 340 | 0.0 | 0.0 | 0.00 | 0.13 | 0.00 | 96 | 1012.8 |
| 20260902050205 | 52 | 340 | 0.0 | 0.0 | 0.00 | 0.13 | 0.00 | 96 | 1012.9 |